QPF
0.04 0.03 0.02 0.01 0.01 0.00 0.00 0.00 0.00 0.00 0.00 0.00 0.00 0.00 0.00 0.00 0.00 0.00 0.00 0.00 0.00 0.00 0.00 0.00 0.00 0.00 0.00 0.01 0.01 0.02 0.02 0.02 0.03 0.03 0.01 0.01 0.01 0.01 0.01 0.02 0.03 0.03 0.03
0.02 0.01 0.01 0.00 0.00 0.00 0.00 0.00 0.00 0.00 0.00 0.00 0.00 0.00 0.00 0.00 0.00 0.00 0.00 0.00 0.00 0.00 0.00 0.00 0.00 0.00 0.00 0.00 0.00 0.01 0.02 0.02 0.03 0.03 0.03 0.01 0.01 0.00 0.00 0.01 0.01 0.02 0.02
0.01 0.01 0.00 0.00 0.00 0.00 0.00 0.00 0.00 0.00 0.00 0.00 0.00 0.00 0.00 0.00 0.00 0.00 0.00 0.00 0.00 0.00 0.00 0.00 0.00 0.00 0.00 0.00 0.00 0.00 0.01 0.01 0.04 0.05 0.06 0.03 0.01 0.01 0.01 0.01 0.01 0.02 0.02
0.00 0.00 0.00 0.00 0.00 0.00 0.00 0.00 0.00 0.00 0.00 0.00 0.00 0.00 0.00 0.00 0.00 0.00 0.00 0.00 0.00 0.00 0.00 0.00 0.00 0.00 0.00 0.00 0.00 0.00 0.00 0.01 0.02 0.03 0.05 0.05 0.04 0.02 0.01 0.01 0.02 0.03 0.02
0.00 0.00 0.00 0.00 0.00 0.00 0.00 0.00 0.00 0.00 0.00 0.00 0.00 0.00 0.00 0.00 0.00 0.00 0.00 0.00 0.00 0.00 0.00 0.00 0.00 0.00 0.00 0.00 0.00 0.00 0.00 0.00 0.00 0.01 0.02 0.03 0.04 0.04 0.03 0.01 0.01 0.02 0.03
0.00 0.00 0.00 0.00 0.00 0.00 0.00 0.00 0.00 0.00 0.00 0.00 0.00 0.00 0.00 0.00 0.00 0.00 0.00 0.00 0.00 0.00 0.00 0.00 0.00 0.00 0.00 0.00 0.00 0.00 0.00 0.00 0.00 0.00 0.01 0.01 0.02 0.03 0.03 0.01 0.00 0.01 0.02
0.00 0.00 0.00 0.00 0.00 0.00 0.00 0.00 0.00 0.00 0.00 0.00 0.00 0.00 0.00 0.00 0.00 0.00 0.00 0.00 0.00 0.00 0.00 0.00 0.00 0.00 0.00 0.00 0.00 0.00 0.00 0.00 0.00 0.00 0.00 0.00 0.01 0.01 0.02 0.02 0.01 0.01 0.01
0.00 0.00 0.00 0.00 0.00 0.00 0.00 0.00 0.00 0.00 0.00 0.00 0.00 0.00 0.00 0.00 0.00 0.00 0.00 0.00 0.00 0.00 0.00 0.00 0.00 0.00 0.00 0.00 0.00 0.00 0.00 0.00 0.00 0.00 0.00 0.00 0.00 0.01 0.01 0.02 0.02 0.01 0.01
0.00 0.00 0.00 0.00 0.00 0.00 0.00 0.00 0.00 0.00 0.00 0.00 0.00 0.00 0.00 0.00 0.00 0.00 0.00 0.00 0.00 0.00 0.00 0.00 0.00 0.00 0.00 0.00 0.00 0.00 0.00 0.00 0.00 0.00 0.00 0.00 0.00 0.00 0.00 0.01 0.02 0.03 0.02
0.00 0.00 0.00 0.00 0.00 0.00 0.00 0.00 0.00 0.00 0.00 0.00 0.00 0.00 0.00 0.00 0.00 0.00 0.00 0.00 0.00 0.00 0.00 0.00 0.00 0.00 0.00 0.00 0.00 0.00 0.00 0.00 0.00 0.00 0.00 0.00 0.00 0.00 0.00 0.00 0.01 0.02 0.03
0.00 0.00 0.00 0.00 0.00 0.00 0.00 0.00 0.00 0.00 0.00 0.00 0.00 0.00 0.00 0.00 0.00 0.00 0.00 0.00 0.00 0.00 0.00 0.00 0.00 0.00 0.00 0.00 0.00 0.00 0.00 0.00 0.00 0.00 0.00 0.00 0.00 0.00 0.00 0.00 0.00 0.01 0.02
0.00 0.00 0.00 0.00 0.00 0.00 0.00 0.00 0.00 0.00 0.00 0.00 0.00 0.00 0.00 0.00 0.00 0.00 0.00 0.00 0.00 0.00 0.00 0.00 0.00 0.00 0.00 0.00 0.00 0.00 0.00 0.00 0.00 0.00 0.00 0.00 0.00 0.00 0.00 0.00 0.00 0.00 0.01
0.00 0.00 0.00 0.00 0.00 0.00 0.00 0.00 0.00 0.00 0.00 0.00 0.00 0.00 0.00 0.00 0.00 0.00 0.00 0.00 0.00 0.00 0.00 0.00 0.00 0.00 0.00 0.00 0.00 0.00 0.00 0.00 0.00 0.00 0.00 0.00 0.00 0.00 0.00 0.00 0.00 0.00 0.00
0.00 0.00 0.00 0.00 0.00 0.00 0.00 0.00 0.00 0.00 0.00 0.00 0.00 0.00 0.00 0.00 0.00 0.00 0.00 0.00 0.00 0.00 0.00 0.00 0.00 0.00 0.00 0.00 0.00 0.00 0.00 0.00 0.00 0.00 0.00 0.00 0.00 0.00 0.00 0.00 0.00 0.00 0.00
0.00 0.00 0.00 0.00 0.00 0.00 0.00 0.00 0.00 0.00 0.00 0.00 0.00 0.00 0.00 0.00 0.00 0.00 0.00 0.00 0.00 0.00 0.00 0.00 0.00 0.00 0.00 0.00 0.00 0.00 0.00 0.00 0.00 0.00 0.00 0.00 0.00 0.00 0.00 0.00 0.00 0.00 0.00
0.00 0.00 0.00 0.00 0.00 0.00 0.00 0.00 0.00 0.00 0.00 0.00 0.00 0.00 0.00 0.00 0.00 0.00 0.00 0.00 0.00 0.00 0.00 0.00 0.00 0.00 0.00 0.00 0.00 0.00 0.00 0.00 0.00 0.00 0.00 0.00 0.00 0.00 0.00 0.00 0.00 0.00 0.00
0.00 0.00 0.00 0.00 0.00 0.00 0.00 0.00 0.00 0.00 0.00 0.00 0.00 0.00 0.00 0.00 0.00 0.00 0.00 0.00 0.00 0.00 0.00 0.00 0.00 0.00 0.00 0.00 0.00 0.00 0.00 0.00 0.00 0.00 0.00 0.00 0.00 0.00 0.00 0.00 0.00 0.00 0.00
0.00 0.00 0.00 0.00 0.00 0.00 0.00 0.00 0.00 0.00 0.00 0.00 0.00 0.00 0.00 0.00 0.00 0.00 0.00 0.00 0.00 0.00 0.00 0.00 0.00 0.00 0.00 0.00 0.00 0.00 0.00 0.00 0.00 0.00 0.00 0.00 0.00 0.00 0.00 0.00 0.00 0.00 0.00
0.00 0.00 0.00 0.00 0.00 0.00 0.00 0.00 0.00 0.00 0.00 0.00 0.00 0.00 0.00 0.00 0.00 0.00 0.00 0.00 0.00 0.00 0.00 0.00 0.00 0.00 0.00 0.00 0.00 0.01 0.01 0.00 0.00 0.00 0.00 0.00 0.00 0.00 0.00 0.00 0.00 0.01 0.01
0.00 0.00 0.00 0.00 0.00 0.00 0.00 0.00 0.00 0.00 0.00 0.00 0.00 0.00 0.00 0.00 0.00 0.00 0.00 0.00 0.00 0.00 0.00 0.00 0.00 0.00 0.00 0.00 0.00 0.01 0.01 0.01 0.00 0.00 0.00 0.00 0.00 0.00 0.00 0.00 0.01 0.01 0.01
0.00 0.00 0.00 0.00 0.00 0.00 0.00 0.00 0.00 0.00 0.00 0.00 0.00 0.00 0.00 0.00 0.00 0.00 0.00 0.00 0.00 0.00 0.00 0.00 0.00 0.00 0.00 0.00 0.00 0.00 0.01 0.01 0.01 0.01 0.00 0.00 0.00 0.00 0.01 0.01 0.01 0.01 0.02
0.00 0.00 0.00 0.00 0.00 0.00 0.00 0.00 0.00 0.00 0.00 0.00 0.00 0.00 0.00 0.00 0.00 0.00 0.00 0.00 0.00 0.00 0.00 0.00 0.00 0.00 0.00 0.00 0.00 0.00 0.01 0.01 0.01 0.01 0.01 0.01 0.01 0.01 0.01 0.01 0.02 0.03 0.03
0.00 0.00 0.00 0.00 0.00 0.00 0.00 0.00 0.00 0.00 0.00 0.00 0.00 0.00 0.00 0.00 0.00 0.00 0.00 0.00 0.00 0.00 0.00 0.00 0.00 0.00 0.00 0.00 0.00 0.00 0.01 0.01 0.01 0.02 0.02 0.02 0.03 0.03 0.04 0.03 0.03 0.04 0.04
0.00 0.00 0.00 0.00 0.00 0.00 0.00 0.00 0.00 0.00 0.00 0.00 0.00 0.00 0.00 0.00 0.00 0.00 0.00 0.00 0.00 0.00 0.00 0.00 0.00 0.00 0.00 0.00 0.00 0.00 0.00 0.00 0.01 0.03 0.05 0.06 0.06 0.07 0.07 0.07 0.06 0.05 0.06
0.00 0.00 0.00 0.00 0.00 0.00 0.00 0.00 0.00 0.00 0.00 0.00 0.00 0.00 0.00 0.00 0.00 0.00 0.00 0.00 0.00 0.00 0.00 0.00 0.00 0.01 0.01 0.01 0.01 0.00 0.00 0.01 0.01 0.03 0.06 0.10 0.12 0.11 0.14 0.12 0.10 0.09 0.09
0.00 0.00 0.00 0.00 0.00 0.00 0.00 0.00 0.00 0.00 0.00 0.00 0.00 0.00 0.00 0.00 0.00 0.00 0.00 0.00 0.00 0.00 0.00 0.01 0.01 0.01 0.01 0.00 0.00 0.01 0.01 0.01 0.02 0.03 0.06 0.12 0.17 0.17 0.19 0.18 0.15 0.13 0.10
MSLP
1015.41 1015.49 1015.55 1015.56 1015.52 1015.44 1015.33 1015.25 1015.22 1015.28 1015.42 1015.63 1015.86 1016.07 1016.23 1016.27 1016.21 1016.03 1015.77 1015.46 1015.16 1014.91 1014.73 1014.63 1014.61 1014.63 1014.67 1014.68 1014.64 1014.54 1014.39 1014.18 1013.95 1013.73 1013.53 1013.37 1013.24 1013.15 1013.07 1013.00 1012.92 1012.86 1012.81
1015.34 1015.44 1015.52 1015.53 1015.49 1015.40 1015.30 1015.24 1015.27 1015.39 1015.60 1015.88 1016.17 1016.42 1016.58 1016.60 1016.48 1016.23 1015.91 1015.55 1015.22 1014.96 1014.78 1014.70 1014.69 1014.71 1014.73 1014.70 1014.61 1014.45 1014.23 1013.97 1013.71 1013.47 1013.26 1013.10 1012.97 1012.86 1012.75 1012.62 1012.48 1012.33 1012.21
1015.12 1015.25 1015.36 1015.41 1015.39 1015.33 1015.25 1015.22 1015.29 1015.46 1015.74 1016.07 1016.41 1016.69 1016.85 1016.85 1016.70 1016.41 1016.04 1015.65 1015.29 1015.02 1014.84 1014.75 1014.73 1014.74 1014.72 1014.65 1014.51 1014.30 1014.03 1013.75 1013.49 1013.26 1013.07 1012.94 1012.82 1012.71 1012.57 1012.40 1012.19 1011.96 1011.75
1014.75 1014.94 1015.11 1015.21 1015.23 1015.20 1015.16 1015.17 1015.26 1015.48 1015.79 1016.16 1016.53 1016.83 1017.00 1017.01 1016.84 1016.54 1016.15 1015.74 1015.37 1015.08 1014.89 1014.79 1014.75 1014.72 1014.66 1014.55 1014.37 1014.13 1013.85 1013.57 1013.33 1013.14 1013.00 1012.90 1012.81 1012.71 1012.56 1012.35 1012.08 1011.77 1011.47
1014.31 1014.55 1014.78 1014.95 1015.03 1015.04 1015.04 1015.07 1015.18 1015.41 1015.74 1016.13 1016.51 1016.83 1017.01 1017.02 1016.87 1016.58 1016.20 1015.80 1015.43 1015.14 1014.94 1014.82 1014.75 1014.68 1014.59 1014.44 1014.23 1013.98 1013.71 1013.46 1013.26 1013.12 1013.03 1012.98 1012.93 1012.84 1012.68 1012.43 1012.11 1011.73 1011.34
1013.85 1014.16 1014.46 1014.70 1014.83 1014.89 1014.91 1014.95 1015.06 1015.28 1015.59 1015.97 1016.35 1016.67 1016.86 1016.90 1016.78 1016.52 1016.18 1015.81 1015.46 1015.17 1014.97 1014.83 1014.73 1014.63 1014.51 1014.33 1014.12 1013.87 1013.62 1013.42 1013.26 1013.18 1013.15 1013.14 1013.12 1013.04 1012.88 1012.60 1012.24 1011.80 1011.35
1013.48 1013.84 1014.21 1014.50 1014.69 1014.78 1014.81 1014.84 1014.93 1015.11 1015.38 1015.72 1016.07 1016.38 1016.59 1016.65 1016.57 1016.36 1016.07 1015.75 1015.43 1015.17 1014.97 1014.82 1014.69 1014.57 1014.42 1014.24 1014.03 1013.80 1013.59 1013.42 1013.31 1013.27 1013.28 1013.31 1013.30 1013.24 1013.06 1012.78 1012.39 1011.93 1011.43
1013.25 1013.66 1014.08 1014.43 1014.65 1014.75 1014.78 1014.78 1014.82 1014.94 1015.15 1015.43 1015.73 1016.01 1016.21 1016.30 1016.26 1016.11 1015.88 1015.60 1015.34 1015.10 1014.90 1014.75 1014.62 1014.48 1014.33 1014.14 1013.94 1013.73 1013.55 1013.42 1013.35 1013.34 1013.36 1013.40 1013.40 1013.34 1013.16 1012.88 1012.50 1012.03 1011.54
1013.20 1013.65 1014.11 1014.48 1014.72 1014.82 1014.82 1014.79 1014.77 1014.81 1014.94 1015.14 1015.38 1015.61 1015.79 1015.89 1015.88 1015.77 1015.59 1015.37 1015.15 1014.94 1014.76 1014.61 1014.47 1014.33 1014.18 1014.00 1013.81 1013.62 1013.46 1013.35 1013.30 1013.30 1013.33 1013.36 1013.36 1013.29 1013.12 1012.86 1012.50 1012.08 1011.62
1013.31 1013.79 1014.26 1014.64 1014.87 1014.96 1014.93 1014.84 1014.76 1014.72 1014.76 1014.87 1015.04 1015.21 1015.36 1015.44 1015.44 1015.36 1015.22 1015.05 1014.86 1014.68 1014.52 1014.37 1014.24 1014.09 1013.94 1013.77 1013.60 1013.42 1013.28 1013.18 1013.12 1013.11 1013.12 1013.14 1013.13 1013.06 1012.91 1012.68 1012.38 1012.02 1011.64
1013.52 1014.01 1014.47 1014.84 1015.05 1015.11 1015.04 1014.91 1014.76 1014.65 1014.61 1014.64 1014.72 1014.83 1014.93 1014.98 1014.98 1014.91 1014.79 1014.64 1014.47 1014.31 1014.16 1014.01 1013.88 1013.74 1013.59 1013.43 1013.26 1013.10 1012.96 1012.85 1012.79 1012.75 1012.75 1012.74 1012.72 1012.65 1012.54 1012.36 1012.13 1011.87 1011.58
1013.76 1014.23 1014.66 1014.98 1015.16 1015.18 1015.08 1014.91 1014.72 1014.55 1014.45 1014.41 1014.42 1014.47 1014.51 1014.53 1014.50 1014.42 1014.30 1014.16 1014.00 1013.84 1013.69 1013.55 1013.42 1013.28 1013.13 1012.97 1012.80 1012.65 1012.50 1012.39 1012.31 1012.25 1012.22 1012.20 1012.18 1012.13 1012.04 1011.93 1011.78 1011.61 1011.42
1013.93 1014.36 1014.73 1015.00 1015.12 1015.11 1014.98 1014.79 1014.57 1014.38 1014.23 1014.15 1014.11 1014.10 1014.10 1014.07 1014.01 1013.92 1013.79 1013.63 1013.47 1013.31 1013.16 1013.01 1012.87 1012.72 1012.56 1012.40 1012.24 1012.08 1011.93 1011.81 1011.71 1011.64 1011.60 1011.57 1011.55 1011.53 1011.48 1011.43 1011.36 1011.27 1011.18
1013.98 1014.33 1014.63 1014.82 1014.89 1014.84 1014.69 1014.49 1014.28 1014.09 1013.94 1013.83 1013.77 1013.73 1013.69 1013.63 1013.54 1013.42 1013.27 1013.10 1012.92 1012.75 1012.58 1012.42 1012.26 1012.10 1011.94 1011.77 1011.60 1011.43 1011.28 1011.15 1011.05 1010.97 1010.93 1010.91 1010.90 1010.90 1010.90 1010.89 1010.88 1010.86 1010.84
1013.86 1014.12 1014.33 1014.44 1014.44 1014.36 1014.22 1014.03 1013.85 1013.68 1013.55 1013.46 1013.40 1013.34 1013.28 1013.19 1013.08 1012.93 1012.76 1012.58 1012.38 1012.19 1012.00 1011.82 1011.64 1011.46 1011.28 1011.09 1010.91 1010.73 1010.58 1010.45 1010.34 1010.28 1010.24 1010.23 1010.24 1010.27 1010.30 1010.33 1010.36 1010.39 1010.41
1013.57 1013.73 1013.84 1013.87 1013.83 1013.73 1013.60 1013.45 1013.31 1013.20 1013.11 1013.05 1013.00 1012.95 1012.88 1012.78 1012.65 1012.48 1012.29 1012.08 1011.87 1011.66 1011.44 1011.24 1011.03 1010.82 1010.62 1010.41 1010.21 1010.02 1009.86 1009.73 1009.63 1009.57 1009.55 1009.56 1009.59 1009.64 1009.70 1009.75 1009.80 1009.84 1009.87
1013.13 1013.20 1013.22 1013.19 1013.12 1013.02 1012.92 1012.82 1012.74 1012.69 1012.66 1012.64 1012.62 1012.58 1012.51 1012.40 1012.25 1012.07 1011.86 1011.63 1011.40 1011.16 1010.92 1010.68 1010.44 1010.20 1009.96 1009.73 1009.51 1009.31 1009.13 1009.00 1008.91 1008.86 1008.85 1008.88 1008.93 1008.99 1009.06 1009.13 1009.18 1009.22 1009.24
1012.57 1012.57 1012.54 1012.48 1012.40 1012.33 1012.27 1012.23 1012.23 1012.24 1012.27 1012.29 1012.30 1012.27 1012.19 1012.07 1011.91 1011.70 1011.47 1011.21 1010.95 1010.68 1010.41 1010.14 1009.86 1009.59 1009.32 1009.06 1008.81 1008.59 1008.40 1008.26 1008.17 1008.12 1008.12 1008.16 1008.22 1008.30 1008.37 1008.44 1008.49 1008.52 1008.53
1011.93 1011.90 1011.86 1011.80 1011.76 1011.73 1011.74 1011.77 1011.83 1011.91 1011.98 1012.03 1012.05 1012.02 1011.93 1011.79 1011.59 1011.36 1011.09 1010.80 1010.50 1010.20 1009.89 1009.59 1009.28 1008.97 1008.67 1008.38 1008.11 1007.87 1007.66 1007.51 1007.41 1007.36 1007.35 1007.39 1007.45 1007.53 1007.61 1007.67 1007.72 1007.74 1007.75
1011.23 1011.23 1011.21 1011.21 1011.23 1011.27 1011.35 1011.46 1011.58 1011.70 1011.81 1011.87 1011.89 1011.83 1011.72 1011.53 1011.30 1011.01 1010.70 1010.37 1010.03 1009.69 1009.34 1009.00 1008.67 1008.33 1008.01 1007.70 1007.40 1007.14 1006.92 1006.75 1006.63 1006.56 1006.54 1006.56 1006.61 1006.68 1006.75 1006.82 1006.87 1006.90 1006.92
1010.49 1010.56 1010.62 1010.71 1010.81 1010.95 1011.11 1011.28 1011.46 1011.61 1011.72 1011.78 1011.77 1011.68 1011.51 1011.28 1010.98 1010.64 1010.27 1009.88 1009.50 1009.11 1008.74 1008.37 1008.01 1007.66 1007.33 1007.01 1006.70 1006.43 1006.20 1006.00 1005.86 1005.76 1005.71 1005.70 1005.73 1005.78 1005.84 1005.91 1005.97 1006.02 1006.06
1009.74 1009.90 1010.07 1010.26 1010.47 1010.70 1010.94 1011.18 1011.39 1011.56 1011.67 1011.71 1011.66 1011.51 1011.29 1010.98 1010.61 1010.21 1009.77 1009.33 1008.90 1008.48 1008.07 1007.69 1007.32 1006.97 1006.64 1006.32 1006.03 1005.75 1005.51 1005.30 1005.13 1005.00 1004.91 1004.85 1004.84 1004.86 1004.90 1004.96 1005.03 1005.11 1005.19
1008.99 1009.26 1009.55 1009.85 1010.16 1010.48 1010.78 1011.07 1011.31 1011.48 1011.58 1011.58 1011.48 1011.29 1010.99 1010.62 1010.19 1009.71 1009.22 1008.72 1008.24 1007.78 1007.35 1006.96 1006.60 1006.27 1005.96 1005.67 1005.40 1005.14 1004.90 1004.67 1004.48 1004.30 1004.16 1004.06 1003.99 1003.96 1003.97 1004.02 1004.10 1004.20 1004.33
1008.28 1008.65 1009.03 1009.42 1009.81 1010.20 1010.55 1010.87 1011.12 1011.30 1011.37 1011.35 1011.21 1010.96 1010.62 1010.18 1009.69 1009.16 1008.61 1008.06 1007.54 1007.06 1006.62 1006.23 1005.89 1005.58 1005.31 1005.06 1004.83 1004.60 1004.37 1004.15 1003.93 1003.72 1003.52 1003.36 1003.23 1003.14 1003.11 1003.13 1003.20 1003.32 1003.47
1007.65 1008.08 1008.52 1008.96 1009.40 1009.82 1010.20 1010.53 1010.79 1010.95 1011.01 1010.97 1010.80 1010.53 1010.15 1009.68 1009.15 1008.57 1007.98 1007.40 1006.85 1006.35 1005.90 1005.52 1005.20 1004.94 1004.71 1004.51 1004.33 1004.14 1003.94 1003.72 1003.49 1003.25 1003.00 1002.78 1002.58 1002.43 1002.34 1002.32 1002.36 1002.48 1002.64
1007.15 1007.58 1008.03 1008.47 1008.91 1009.33 1009.70 1010.03 1010.27 1010.43 1010.49 1010.44 1010.28 1010.00 1009.61 1009.14 1008.59 1007.99 1007.38 1006.78 1006.21 1005.69 1005.24 1004.87 1004.57 1004.34 1004.16 1004.02 1003.88 1003.74 1003.57 1003.37 1003.14 1002.87 1002.59 1002.31 1002.05 1001.84 1001.68 1001.61 1001.62 1001.70 1001.86
Thickness
5723 5724 5723 5721 5718 5716 5714 5712 5709 5706 5703 5700 5697 5694 5691 5689 5689 5688 5687 5686 5686 5685 5685 5683 5683 5682 5681 5680 5680 5681 5682 5683 5685 5685 5688 5693 5698 5700 5702 5702 5703 5705 5706
5719 5720 5720 5718 5715 5713 5710 5707 5703 5701 5698 5694 5690 5687 5684 5682 5680 5679 5679 5678 5678 5677 5677 5676 5675 5674 5673 5673 5673 5672 5673 5674 5677 5677 5678 5680 5687 5694 5699 5700 5701 5702 5704
5718 5718 5718 5716 5714 5711 5708 5706 5701 5697 5693 5689 5685 5681 5677 5675 5672 5671 5670 5670 5669 5669 5668 5668 5667 5666 5666 5665 5665 5665 5664 5664 5667 5670 5670 5669 5672 5680 5690 5694 5696 5698 5700
5722 5720 5719 5717 5715 5713 5710 5705 5700 5695 5690 5686 5680 5675 5670 5665 5664 5662 5661 5661 5661 5661 5660 5659 5659 5658 5657 5657 5657 5657 5656 5656 5657 5660 5663 5664 5667 5668 5674 5683 5688 5692 5696
5724 5722 5721 5720 5718 5715 5709 5704 5698 5692 5687 5682 5676 5670 5665 5660 5658 5655 5654 5653 5653 5652 5652 5651 5650 5649 5649 5648 5648 5648 5648 5648 5648 5649 5652 5655 5658 5660 5662 5668 5677 5683 5690
5727 5725 5724 5721 5717 5713 5708 5701 5694 5688 5683 5677 5671 5665 5660 5656 5653 5650 5648 5646 5645 5644 5644 5643 5641 5640 5639 5639 5639 5640 5639 5639 5639 5640 5642 5644 5647 5650 5653 5658 5664 5672 5681
5726 5723 5721 5718 5714 5709 5704 5698 5691 5684 5679 5673 5668 5663 5658 5653 5649 5646 5643 5641 5638 5637 5636 5634 5632 5631 5630 5630 5629 5630 5630 5630 5631 5631 5633 5635 5638 5641 5645 5648 5654 5661 5671
5726 5723 5720 5716 5712 5707 5701 5693 5687 5681 5675 5670 5665 5660 5656 5651 5647 5644 5640 5636 5633 5631 5629 5626 5624 5622 5621 5620 5619 5618 5619 5620 5621 5622 5624 5626 5629 5632 5636 5640 5644 5649 5658
5725 5721 5718 5713 5708 5702 5696 5689 5683 5677 5672 5667 5662 5657 5653 5648 5644 5641 5636 5632 5629 5626 5623 5620 5616 5613 5611 5609 5608 5607 5607 5608 5610 5612 5614 5616 5619 5623 5627 5631 5635 5638 5644
5721 5717 5713 5708 5702 5696 5690 5684 5679 5673 5669 5664 5659 5655 5650 5646 5641 5636 5632 5628 5624 5620 5616 5612 5608 5605 5602 5599 5597 5596 5596 5597 5599 5600 5603 5606 5609 5613 5617 5622 5627 5631 5635
5715 5711 5706 5701 5695 5690 5684 5679 5675 5670 5665 5661 5656 5651 5646 5642 5636 5631 5627 5623 5618 5614 5609 5605 5601 5597 5594 5591 5588 5587 5586 5587 5588 5590 5593 5596 5599 5602 5607 5612 5617 5622 5627
5710 5705 5699 5694 5689 5684 5680 5676 5672 5667 5663 5659 5653 5648 5642 5637 5631 5627 5623 5618 5613 5608 5603 5598 5594 5590 5588 5585 5582 5580 5580 5579 5579 5581 5583 5586 5589 5592 5596 5601 5607 5612 5619
5704 5698 5693 5688 5684 5681 5677 5673 5669 5665 5661 5655 5649 5644 5638 5632 5627 5622 5617 5612 5607 5602 5597 5592 5588 5584 5581 5579 5576 5574 5573 5573 5572 5573 5574 5576 5578 5582 5586 5590 5596 5602 5609
5698 5693 5688 5684 5681 5677 5673 5669 5666 5662 5657 5651 5645 5639 5634 5628 5623 5617 5612 5606 5601 5596 5591 5586 5582 5578 5575 5573 5570 5569 5568 5567 5566 5566 5566 5567 5569 5572 5576 5580 5585 5591 5597
5696 5692 5687 5682 5678 5674 5670 5666 5662 5658 5653 5647 5641 5636 5630 5624 5618 5612 5607 5601 5595 5590 5585 5580 5576 5572 5568 5566 5564 5562 5561 5559 5558 5558 5558 5558 5560 5562 5565 5570 5575 5580 5586
5695 5691 5687 5682 5677 5673 5668 5664 5659 5655 5649 5642 5637 5632 5625 5619 5613 5607 5601 5595 5590 5584 5579 5574 5570 5566 5563 5561 5558 5555 5553 5551 5550 5550 5549 5549 5550 5553 5556 5560 5565 5569 5574
5694 5690 5686 5681 5677 5671 5666 5660 5656 5650 5644 5638 5632 5627 5620 5613 5607 5601 5595 5589 5584 5578 5572 5568 5563 5560 5557 5553 5550 5547 5545 5543 5542 5541 5540 5540 5542 5542 5544 5548 5553 5558 5564
5694 5690 5686 5681 5676 5670 5663 5657 5651 5645 5639 5633 5627 5621 5614 5608 5601 5594 5588 5583 5577 5571 5566 5562 5557 5554 5552 5548 5544 5540 5537 5535 5534 5532 5530 5530 5530 5530 5531 5534 5539 5545 5552
5697 5693 5688 5681 5674 5667 5660 5653 5646 5640 5633 5627 5621 5615 5608 5602 5595 5588 5582 5576 5570 5565 5560 5556 5551 5548 5546 5542 5538 5533 5529 5527 5525 5523 5521 5519 5519 5519 5518 5521 5526 5532 5538
5697 5692 5685 5677 5669 5663 5655 5647 5641 5634 5628 5622 5616 5609 5602 5595 5588 5582 5576 5570 5564 5559 5554 5550 5546 5542 5540 5536 5531 5526 5522 5519 5517 5514 5512 5510 5508 5507 5506 5508 5513 5519 5526
5697 5690 5681 5673 5667 5659 5650 5642 5635 5629 5623 5617 5610 5603 5596 5589 5582 5576 5570 5564 5559 5554 5549 5545 5542 5538 5535 5531 5526 5520 5515 5512 5510 5507 5505 5502 5499 5496 5495 5495 5501 5507 5511
5695 5686 5677 5670 5663 5654 5645 5638 5631 5625 5618 5610 5604 5597 5590 5582 5578 5570 5564 5559 5553 5549 5545 5541 5538 5535 5531 5526 5521 5516 5510 5506 5502 5501 5499 5496 5491 5487 5485 5485 5488 5491 5495
5692 5683 5674 5666 5658 5649 5640 5633 5627 5619 5611 5603 5596 5590 5583 5576 5569 5564 5559 5554 5549 5545 5542 5538 5535 5532 5528 5522 5517 5511 5506 5502 5498 5496 5493 5489 5484 5480 5478 5478 5479 5481 5487
5688 5679 5669 5660 5653 5644 5636 5630 5623 5614 5605 5597 5590 5583 5576 5570 5564 5559 5554 5550 5547 5543 5539 5536 5532 5529 5525 5520 5514 5508 5503 5499 5495 5492 5489 5485 5481 5477 5475 5475 5476 5478 5483
5684 5674 5665 5656 5649 5640 5632 5625 5616 5607 5598 5590 5583 5576 5570 5564 5559 5555 5551 5548 5545 5540 5536 5534 5530 5526 5524 5520 5512 5505 5501 5497 5492 5488 5487 5485 5482 5479 5477 5476 5477 5478 5481
5678 5668 5660 5652 5644 5635 5627 5620 5611 5602 5592 5584 5577 5570 5564 5559 5555 5552 5550 5548 5543 5540 5536 5531 5526 5524 5519 5515 5509 5504 5499 5495 5490 5488 5488 5487 5484 5483 5482 5481 5481 5482 5485